Weather in Veliky Zhvanchik

Ukraine / Khmelnitsky District     48°45′42″N   26°57′47″E
temp.,
°C
wind,
m/s
gust,
m/s
humid.,
%
clouds,
%
prec.,
mm/h
press.,
hPa
HPBL,
m
15 may, sat
sat1500:00+10wsw379075 0.0 1008134
03:00+10wsw2279100 0.0 100951
06:00+10wsw2283100 0.0 100944
09:00+11sw3786100 0.1 1011313
12:00+11wsw4891100 0.4 1012517
15:00+16wnw346882 0.6 10111170
18:00+17w236328 0.6 10111041
21:00+12nw12835 0.6 101110
16 may, sun
sun1600:00+10ene11865 0.0 101210
03:00+10e22890 0.0 101217
06:00+9e389184 0.0 1011136
09:00+15sse5876100 0.0 1011406
12:00+20sse685697 0.0 10101341
15:00+21sse7949100 0.0 10082228
18:00+17s3872100 0.4 1007234
21:00+14se2283100 0.5 100720
17 may, mon
mon1700:00+14ssw1180100 0.3 100712
03:00+12nw249359 0.8 100872
06:00+12n4996100 0.2 1007309
09:00+14nnw468699 0.4 1008380
12:00+17n4571100 0.0 1007673
15:00+20nnw445773 0.0 10051486
18:00+20nne335698 0.0 10041431
21:00+16ene2275100 0.0 100417
18 may, tue
tue1800:00+13ese1191100 0.6 100312
03:00+13nw3697100 2.8 1003185
06:00+12nw5896100 2.8 1003425
09:00+11wnw4894100 4.3 1005566
12:00+12nw61084100 0.9 1007772
15:00+15wnw7972100 1.7 10071241
18:00+16wnw686397 0.1 10071428
21:00+11wnw498030 0.1 1009214
19 may, wed
wed1900:00+9w379193 0.0 1011139
03:00+8w499397 0.0 1012229
06:00+7wnw4119583 0.0 1012291
09:00+12wnw69742 0.0 1013804
12:00+16wnw675442 0.1 10131898
15:00+16wnw4557100 0.1 10121493
18:00+16nw3459100 0.0 1012896
21:00+12nw2274100 0.0 101425